EW4060 Weather Reports


Display with metric or nautical units.
time (UTC)temp
F
wind
direction
speed
MPH
gust
MPH
rain 1hr
in
rain 24hr
in
rain mn
in
humidity
%
barometer
mb
20191117074440 36 158 1.0 4.0 0.00 0.05 0.00 81 1012.5
20191117073940 36 186 0.0 2.0 0.00 0.05 0.00 80 1012.6
20191117073440 36 186 0.0 5.0 0.00 0.05 0.00 80 1012.7
20191117072940 36 186 0.0 5.0 0.00 0.05 0.00 79 1012.6
20191117072440 36 168 0.0 4.0 0.00 0.05 0.00 79 1012.6
20191117071940 36 147 0.0 3.0 0.00 0.05 0.00 79 1012.7
20191117071440 36 147 0.0 3.0 0.00 0.05 0.00 78 1012.7
20191117070940 36 148 2.0 3.0 0.00 0.05 0.00 78 1012.8
20191117070440 36 146 0.0 3.0 0.00 0.05 0.00 78 1012.9
20191117065940 36 134 2.0 4.0 0.00 0.05 0.00 78 1013.0
20191117065440 36 81 2.0 4.0 0.00 0.05 0.00 78 1013.1
20191117064940 37 143 0.0 4.0 0.00 0.05 0.00 78 1013.2
20191117064440 37 143 0.0 4.0 0.00 0.05 0.00 78 1013.2
20191117063940 37 199 2.0 3.0 0.00 0.05 0.00 78 1013.3
20191117063440 37 199 0.0 3.0 0.00 0.05 0.00 78 1013.3
20191117062940 37 148 0.0 3.0 0.00 0.05 0.00 78 1013.4
20191117062441 37 97 2.0 3.0 0.00 0.05 0.00 78 1013.4
20191117061940 37 136 0.0 3.0 0.00 0.05 0.00 78 1013.4
20191117061440 37 136 0.0 3.0 0.00 0.05 0.00 78 1013.4
20191117060940 37 136 2.0 3.0 0.00 0.05 0.00 78 1013.4
20191117060440 37 133 0.0 3.0 0.00 0.05 0.00 78 1013.5
20191117055440 37 101 0.0 5.0 0.00 0.05 0.05 78 1013.6
20191117054940 37 59 0.0 4.0 0.00 0.05 0.05 78 1013.6
20191117054440 37 134 1.0 4.0 0.00 0.05 0.05 78 1013.7
20191117053940 37 203 1.0 4.0 0.00 0.05 0.05 78 1013.7
20191117053440 37 203 2.0 5.0 0.00 0.05 0.05 78 1013.8
20191117052940 37 307 1.0 5.0 0.00 0.05 0.05 78 1013.8
20191117052440 37 190 3.0 5.0 0.00 0.05 0.05 77 1013.8
20191117051940 37 150 4.0 4.0 0.00 0.05 0.05 77 1013.8
20191117051440 37 173 2.0 3.0 0.00 0.05 0.05 77 1013.8
20191117050940 37 173 2.0 5.0 0.00 0.05 0.05 77 1013.6
20191117050440 37 172 1.0 5.0 0.00 0.05 0.05 77 1013.8
20191117045940 37 134 1.0 5.0 0.00 0.05 0.05 77 1013.8
20191117045440 37 166 0.0 4.0 0.00 0.05 0.05 77 1014.0
20191117044940 37 166 0.0 5.0 0.00 0.05 0.05 77 1014.1
20191117044440 37 166 0.0 5.0 0.00 0.05 0.05 77 1014.1
20191117043940 37 164 0.0 6.0 0.00 0.05 0.05 77 1014.1
20191117043458 37 216 0.0 6.0 0.00 0.05 0.05 77 1014.0
20191117042940 37 175 0.0 4.0 0.00 0.05 0.05 76 1014.1
20191117042440 37 175 2.0 4.0 0.00 0.05 0.05 76 1014.2
20191117041940 37 175 1.0 4.0 0.00 0.05 0.05 76 1014.1
20191117041440 37 175 0.0 4.0 0.00 0.05 0.05 76 1014.1
20191117040940 37 175 2.0 4.0 0.00 0.05 0.05 75 1014.1
20191117040440 37 186 2.0 3.0 0.00 0.05 0.05 76 1014.2
20191117035940 37 186 0.0 3.0 0.00 0.05 0.05 76 1014.3
20191117035440 37 186 0.0 4.0 0.00 0.05 0.05 76 1014.1
20191117034940 37 186 1.0 4.0 0.00 0.05 0.05 75 1014.0
20191117034440 37 186 2.0 3.0 0.00 0.05 0.05 75 1014.3
20191117033940 37 189 0.0 4.0 0.00 0.05 0.05 75 1014.3
20191117033441 37 187 0.0 4.0 0.00 0.05 0.05 74 1014.3
20191117032940 37 187 1.0 4.0 0.00 0.05 0.05 74 1014.3
20191117032440 37 191 2.0 4.0 0.00 0.05 0.05 74 1014.3
20191117031940 37 191 1.0 4.0 0.00 0.05 0.05 74 1014.3
20191117031440 37 179 2.0 6.0 0.00 0.05 0.05 74 1014.3
20191117030940 37 179 2.0 6.0 0.00 0.05 0.05 74 1014.4
20191117030440 37 186 2.0 5.0 0.00 0.05 0.05 73 1014.4
20191117025940 37 186 0.0 5.0 0.00 0.05 0.05 74 1014.5
20191117025440 37 178 2.0 4.0 0.00 0.05 0.05 73 1014.4
20191117024940 37 182 0.0 4.0 0.00 0.05 0.05 74 1014.5
20191117024440 37 182 1.0 4.0 0.00 0.05 0.05 73 1014.5
20191117023939 37 182 2.0 4.0 0.00 0.05 0.05 73 1014.5
20191117023440 37 182 2.0 4.0 0.00 0.05 0.05 73 1014.6
20191117022940 37 182 0.0 6.0 0.00 0.05 0.05 74 1014.7
20191117022440 37 80 0.0 6.0 0.00 0.05 0.05 74 1014.7
20191117021941 37 170 2.0 6.0 0.00 0.05 0.05 73 1014.6
20191117021440 37 171 0.0 4.0 0.00 0.05 0.05 74 1014.7
20191117020940 37 171 2.0 4.0 0.00 0.05 0.05 73 1014.8
20191117020440 37 171 2.0 4.0 0.00 0.05 0.05 73 1014.9
20191117020010 37 175 1.0 4.0 0.00 0.05 0.05 73 1014.9
20191117015440 37 189 0.0 5.0 0.00 0.05 0.05 73 1014.9
20191117014940 37 200 2.0 5.0 0.00 0.05 0.05 73 1014.9
20191117014440 36 202 1.0 3.0 0.00 0.05 0.05 74 1015.0
20191117013940 37 202 0.0 3.0 0.00 0.05 0.05 73 1015.1
20191117013440 37 202 2.0 3.0 0.00 0.05 0.05 74 1015.3
20191117012939 37 202 0.0 5.0 0.00 0.05 0.05 73 1015.3
20191117012441 37 148 0.0 5.0 0.00 0.05 0.05 73 1015.3
20191117011940 37 205 1.0 4.0 0.00 0.05 0.05 72 1015.4
20191117011440 37 207 0.0 4.0 0.00 0.05 0.05 73 1015.5
20191117010940 37 207 3.0 4.0 0.00 0.05 0.05 73 1015.3
20191117010440 37 149 0.0 2.0 0.00 0.05 0.05 72 1015.4
20191117005940 37 149 0.0 2.0 0.00 0.05 0.05 73 1015.3
20191117005440 37 149 0.0 3.0 0.00 0.05 0.05 72 1015.4
20191117004940 37 148 0.0 3.0 0.00 0.05 0.05 72 1015.3
20191117004439 37 144 0.0 5.0 0.00 0.05 0.05 72 1015.2
20191117003940 37 72 0.0 5.0 0.00 0.05 0.05 73 1015.1
20191117003440 37 174 3.0 4.0 0.00 0.05 0.05 72 1014.9
20191117002940 37 151 0.0 5.0 0.00 0.05 0.05 72 1014.8
20191117002439 37 151 2.0 5.0 0.00 0.05 0.05 71 1015.0
20191117001940 37 139 0.0 4.0 0.00 0.05 0.05 71 1014.8
20191117001440 37 165 2.0 4.0 0.00 0.05 0.05 71 1015.0
20191117000940 38 188 1.0 5.0 0.00 0.05 0.05 72 1014.9
20191117000440 38 170 1.0 5.0 0.00 0.05 0.05 71 1014.9
20191116235940 38 157 0.0 5.0 0.00 0.05 0.05 71 1015.0
20191116235439 38 176 3.0 5.0 0.00 0.05 0.05 71 1015.0
20191116234940 38 177 0.0 3.0 0.00 0.05 0.05 71 1015.0
20191116234439 38 178 1.0 3.0 0.00 0.05 0.05 71 1015.1
20191116233940 38 178 1.0 6.0 0.00 0.05 0.05 71 1015.2
20191116233440 38 178 2.0 8.0 0.00 0.05 0.05 71 1015.2
20191116232941 38 185 6.0 8.0 0.00 0.05 0.05 72 1015.3
20191116232439 38 21 0.0 7.0 0.00 0.05 0.05 71 1015.2
20191116231940 38 93 1.0 4.0 0.00 0.05 0.05 72 1015.2
20191116231440 38 181 2.0 3.0 0.00 0.05 0.05 71 1015.0
20191116230939 38 180 0.0 5.0 0.00 0.05 0.05 71 1015.0
20191116230440 38 186 0.0 5.0 0.00 0.05 0.05 71 1015.0
20191116225940 38 173 0.0 5.0 0.00 0.05 0.05 70 1015.1
20191116225439 38 173 3.0 5.0 0.00 0.05 0.05 71 1015.1
20191116224940 38 171 4.0 5.0 0.00 0.05 0.05 71 1015.2
20191116224440 38 152 0.0 4.0 0.00 0.05 0.05 71 1015.1
20191116223940 38 153 0.0 4.0 0.00 0.05 0.05 72 1015.2
20191116223440 38 166 1.0 4.0 0.00 0.05 0.05 71 1015.1
20191116222940 39 156 0.0 4.0 0.00 0.05 0.05 71 1015.4
20191116222440 39 175 0.0 4.0 0.00 0.05 0.05 71 1015.4
20191116221939 39 173 2.0 5.0 0.00 0.05 0.05 71 1015.4
20191116221440 39 167 1.0 5.0 0.00 0.05 0.05 71 1015.5
20191116220939 39 118 0.0 8.0 0.00 0.05 0.05 71 1015.6
20191116220439 39 189 3.0 8.0 0.00 0.05 0.05 70 1015.6
20191116215940 39 128 0.0 5.0 0.00 0.05 0.05 70 1015.7
20191116215439 39 169 0.0 5.0 0.00 0.05 0.05 70 1015.8
20191116214939 39 111 0.0 3.0 0.00 0.05 0.05 71 1015.9
20191116214440 40 110 0.0 4.0 0.00 0.05 0.05 69 1015.9
20191116213940 40 205 0.0 4.0 0.00 0.05 0.05 70 1016.0
20191116213439 40 120 1.0 6.0 0.00 0.05 0.05 69 1015.9
20191116212939 40 150 1.0 6.0 0.00 0.05 0.05 68 1016.0
20191116212439 40 117 2.0 3.0 0.00 0.05 0.05 69 1016.3
20191116211940 40 121 0.0 3.0 0.00 0.05 0.05 70 1016.3
20191116211439 40 113 0.0 3.0 0.00 0.05 0.05 70 1016.4
20191116210939 40 113 0.0 3.0 0.00 0.05 0.05 70 1016.5
20191116210439 40 112 0.0 3.0 0.00 0.05 0.05 70 1016.7
20191116205940 40 69 0.0 3.0 0.00 0.05 0.05 70 1017.1
20191116205440 40 138 0.0 4.0 0.00 0.05 0.05 70 1016.8
20191116204939 40 130 1.0 4.0 0.00 0.05 0.05 70 1016.9
20191116204439 40 184 1.0 3.0 0.00 0.05 0.05 70 1017.1
20191116203940 40 184 1.0 2.0 0.00 0.05 0.05 70 1017.0
20191116203439 40 184 0.0 4.0 0.00 0.05 0.05 68 1017.0
20191116202939 40 240 0.0 4.0 0.00 0.05 0.05 70 1017.1
20191116202439 40 167 1.0 5.0 0.00 0.05 0.05 69 1017.1
20191116201940 40 167 1.0 5.0 0.00 0.05 0.05 69 1017.2
20191116201439 40 164 0.0 5.0 0.00 0.05 0.05 70 1017.2
20191116200940 40 175 3.0 6.0 0.00 0.05 0.05 69 1017.1
20191116200439 40 173 2.0 6.0 0.00 0.05 0.05 69 1017.3
20191116195939 40 144 2.0 4.0 0.00 0.05 0.05 70 1017.4
20191116195439 40 119 3.0 5.0 0.00 0.05 0.05 68 1017.5
20191116194939 40 140 3.0 5.0 0.00 0.05 0.05 69 1017.5
20191116194439 40 186 2.0 5.0 0.01 0.05 0.05 68 1017.5
20191116193939 40 182 0.0 3.0 0.01 0.05 0.05 68 1017.6
20191116193440 40 225 0.0 4.0 0.01 0.05 0.05 69 1017.7
20191116192940 40 201 1.0 6.0 0.01 0.05 0.05 69 1017.9
20191116192439 40 71 3.0 8.0 0.01 0.05 0.05 69 1017.9
20191116191939 40 175 1.0 8.0 0.01 0.05 0.05 68 1017.9
20191116191439 40 159 0.0 6.0 0.01 0.05 0.05 67 1017.8
20191116190939 40 184 1.0 4.0 0.01 0.05 0.05 68 1017.9
20191116190439 40 184 1.0 4.0 0.02 0.05 0.05 68 1017.9
20191116185940 40 199 2.0 6.0 0.02 0.05 0.05 67 1018.0
20191116185439 40 181 0.0 6.0 0.02 0.05 0.05 65 1018.2
20191116184939 40 129 0.0 5.0 0.02 0.05 0.05 66 1018.4
20191116184439 41 157 1.0 5.0 0.01 0.04 0.04 67 1018.5
20191116183939 41 341 1.0 8.0 0.01 0.04 0.04 67 1018.4
20191116183439 40 184 2.0 8.0 0.01 0.04 0.04 67 1018.4
20191116182939 40 178 2.0 5.0 0.01 0.04 0.04 68 1018.7
20191116182439 40 180 1.0 5.0 0.01 0.04 0.04 67 1018.9
20191116181940 40 186 4.0 7.0 0.01 0.04 0.04 67 1018.9
20191116181440 40 188 3.0 7.0 0.01 0.04 0.04 68 1019.0
20191116180939 39 174 2.0 5.0 0.02 0.04 0.04 69 1018.9
20191116180439 39 186 1.0 5.0 0.01 0.03 0.03 68 1019.2
20191116175939 40 180 1.0 5.0 0.01 0.03 0.03 67 1019.3
20191116175439 40 170 4.0 5.0 0.01 0.03 0.03 66 1019.4
20191116174939 40 138 0.0 2.0 0.01 0.03 0.03 67 1019.6
20191116174439 40 156 0.0 5.0 0.02 0.03 0.03 67 1019.9
20191116173939 40 156 0.0 5.0 0.02 0.03 0.03 67 1019.9
20191116173439 40 128 0.0 9.0 0.02 0.03 0.03 67 1020.0
20191116172939 40 82 2.0 9.0 0.02 0.03 0.03 65 1020.1
20191116172443 39 171 1.0 4.0 0.02 0.03 0.03 69 1020.3
20191116171939 39 119 3.0 4.0 0.03 0.03 0.03 68 1020.4
20191116171440 39 183 0.0 4.0 0.03 0.03 0.03 68 1020.5
20191116170939 39 178 2.0 5.0 0.02 0.02 0.02 67 1020.6
20191116170439 39 166 3.0 6.0 0.02 0.02 0.02 67 1020.6
20191116165940 39 173 2.0 6.0 0.02 0.02 0.02 68 1020.7
20191116165440 39 238 1.0 4.0 0.02 0.02 0.02 68 1020.6
20191116164940 39 163 2.0 4.0 0.02 0.02 0.02 68 1020.8
20191116164440 38 183 1.0 4.0 0.01 0.01 0.01 68 1020.8
20191116163939 38 183 1.0 4.0 0.01 0.01 0.01 68 1020.7
20191116163439 37 173 2.0 4.0 0.01 0.01 0.01 70 1020.8
20191116162939 37 142 2.0 4.0 0.01 0.01 0.01 69 1020.9
20191116162439 36 178 0.0 4.0 0.01 0.01 0.01 71 1020.8
20191116161939 36 167 0.0 9.0 0.00 0.00 0.00 71 1020.9
20191116161439 36 167 0.0 9.0 0.00 0.00 0.00 72 1020.9
20191116160939 36 136 0.0 4.0 0.00 0.00 0.00 71 1021.0
20191116160439 35 148 0.0 6.0 0.00 0.00 0.00 70 1021.1
20191116155940 35 140 1.0 6.0 0.00 0.00 0.00 73 1021.2
20191116155439 35 182 0.0 4.0 0.00 0.00 0.00 71 1021.2
20191116154939 35 180 1.0 4.0 0.00 0.00 0.00 71 1021.3
20191116154440 35 114 2.0 4.0 0.00 0.00 0.00 73 1021.3
20191116153939 34 134 0.0 4.0 0.00 0.00 0.00 73 1021.2
20191116153439 34 161 1.0 4.0 0.00 0.00 0.00 72 1021.3
20191116152939 34 180 0.0 3.0 0.00 0.00 0.00 73 1021.4
20191116152439 34 180 0.0 3.0 0.00 0.00 0.00 73 1021.5
20191116151939 34 180 1.0 4.0 0.00 0.00 0.00 72 1021.6
20191116151440 34 133 2.0 4.0 0.00 0.00 0.00 73 1021.7
20191116150939 34 204 1.0 4.0 0.00 0.00 0.00 73 1021.8
20191116150439 34 173 1.0 4.0 0.00 0.00 0.00 74 1021.8
20191116145939 34 196 2.0 4.0 0.00 0.00 0.00 73 1021.8
20191116145439 33 184 1.0 5.0 0.00 0.00 0.00 74 1021.7
20191116144939 33 180 1.0 5.0 0.00 0.00 0.00 74 1021.8
20191116144439 33 171 1.0 5.0 0.00 0.00 0.00 73 1021.7
20191116143939 33 180 1.0 6.0 0.00 0.00 0.00 74 1021.7
20191116143439 33 190 0.0 8.0 0.00 0.00 0.00 74 1021.7
20191116142939 33 186 3.0 8.0 0.00 0.00 0.00 74 1021.8
20191116142439 33 142 1.0 5.0 0.00 0.00 0.00 75 1021.8
20191116141939 32 185 1.0 5.0 0.00 0.00 0.00 75 1021.9
20191116141439 32 187 1.0 5.0 0.00 0.00 0.00 75 1021.9
20191116140939 32 175 2.0 5.0 0.00 0.00 0.00 74 1021.8
20191116140439 32 174 1.0 4.0 0.00 0.00 0.00 75 1021.8
20191116135939 32 138 0.0 4.0 0.00 0.00 0.00 75 1021.9
20191116135439 32 140 2.0 3.0 0.00 0.00 0.00 75 1021.9
20191116134939 32 136 0.0 4.0 0.00 0.00 0.00 75 1021.9
20191116134439 31 137 0.0 4.0 0.00 0.00 0.00 75 1021.9
20191116133939 31 161 0.0 5.0 0.00 0.00 0.00 74 1021.8
20191116133439 31 174 2.0 5.0 0.00 0.00 0.00 73 1021.7
20191116132939 31 182 1.0 6.0 0.00 0.00 0.00 74 1022.0
20191116132439 31 144 1.0 6.0 0.00 0.00 0.00 74 1022.2
20191116131939 31 170 1.0 4.0 0.00 0.00 0.00 73 1021.9
20191116131439 31 202 1.0 6.0 0.00 0.00 0.00 72 1022.0
20191116130939 31 169 2.0 6.0 0.00 0.00 0.00 72 1022.1
20191116130439 31 167 1.0 5.0 0.00 0.00 0.00 72 1022.1
20191116125939 31 171 1.0 5.0 0.00 0.00 0.00 72 1022.1
20191116125439 31 171 1.0 5.0 0.00 0.00 0.00 72 1022.2
20191116124939 31 187 1.0 3.0 0.00 0.00 0.00 72 1022.2
20191116124439 32 188 0.0 3.0 0.00 0.00 0.00 71 1022.2
20191116123939 32 188 1.0 3.0 0.00 0.00 0.00 71 1022.3
20191116123439 32 188 1.0 5.0 0.00 0.00 0.00 70 1022.3
20191116122939 31 118 2.0 5.0 0.00 0.00 0.00 69 1022.3
20191116122439 31 150 1.0 3.0 0.00 0.00 0.00 71 1022.4
20191116121939 31 150 0.0 3.0 0.00 0.00 0.00 71 1022.4
20191116121439 31 150 1.0 3.0 0.00 0.00 0.00 69 1022.4
20191116120939 31 207 2.0 3.0 0.00 0.00 0.00 69 1022.5
20191116120439 31 208 0.0 3.0 0.00 0.00 0.00 70 1022.5
20191116115939 31 131 0.0 4.0 0.00 0.00 0.00 70 1022.5
20191116115439 31 131 2.0 4.0 0.00 0.00 0.00 70 1022.5
20191116114939 32 128 0.0 7.0 0.00 0.00 0.00 67 1022.7
20191116114439 31 134 1.0 7.0 0.00 0.00 0.00 68 1022.6
20191116113939 31 128 0.0 5.0 0.00 0.00 0.00 67 1022.5
20191116113440 31 185 1.0 5.0 0.00 0.00 0.00 66 1022.5
20191116112939 31 149 0.0 4.0 0.00 0.00 0.00 68 1022.5
20191116112439 31 149 1.0 4.0 0.00 0.00 0.00 67 1022.7
20191116111939 31 169 1.0 4.0 0.00 0.00 0.00 67 1022.6
20191116111439 31 169 0.0 4.0 0.00 0.00 0.00 66 1022.7
20191116110939 31 169 1.0 5.0 0.00 0.00 0.00 65 1022.7
20191116110439 30 156 3.0 5.0 0.00 0.00 0.00 67 1022.7
20191116105939 30 151 1.0 3.0 0.00 0.00 0.00 66 1022.7
20191116105439 30 148 2.0 7.0 0.00 0.00 0.00 66 1022.7
20191116104939 30 167 1.0 7.0 0.00 0.00 0.00 66 1022.7
20191116104439 30 83 2.0 3.0 0.00 0.00 0.00 66 1022.8
20191116103939 30 78 0.0 3.0 0.00 0.00 0.00 66 1022.9
20191116103439 29 142 0.0 3.0 0.00 0.00 0.00 65 1022.8
20191116102939 29 142 0.0 5.0 0.00 0.00 0.00 65 1022.8
20191116102439 29 97 1.0 5.0 0.00 0.00 0.00 66 1023.0
20191116101939 29 338 0.0 4.0 0.00 0.00 0.00 67 1023.0
20191116101439 29 107 0.0 2.0 0.00 0.00 0.00 68 1023.1
20191116100939 29 107 0.0 4.0 0.00 0.00 0.00 67 1023.2
20191116100439 29 107 0.0 4.0 0.00 0.00 0.00 66 1023.3
20191116095939 29 100 2.0 3.0 0.00 0.00 0.00 67 1023.4
20191116095439 28 90 3.0 3.0 0.00 0.00 0.00 67 1023.5
20191116094939 28 114 0.0 3.0 0.00 0.00 0.00 67 1023.7
20191116094439 28 109 0.0 2.0 0.00 0.00 0.00 70 1023.7
20191116093939 28 99 0.0 3.0 0.00 0.00 0.00 71 1023.9
20191116093439 28 99 2.0 4.0 0.00 0.00 0.00 72 1024.1
20191116092939 27 123 0.0 4.0 0.00 0.00 0.00 72 1024.0
20191116092439 27 148 0.0 2.0 0.00 0.00 0.00 74 1024.1
20191116091939 27 148 0.0 1.0 0.00 0.00 0.00 73 1024.2
20191116091439 27 148 0.0 0.0 0.00 0.00 0.00 76 1024.4
20191116090939 27 148 0.0 0.0 0.00 0.00 0.00 73 1024.4
20191116090439 27 148 0.0 2.0 0.00 0.00 0.00 76 1024.4
20191116085939 26 148 0.0 2.0 0.00 0.00 0.00 72 1024.5
20191116085439 27 148 0.0 0.0 0.00 0.00 0.00 72 1024.7
20191116084939 26 148 0.0 0.0 0.00 0.00 0.00 73 1024.7
20191116084439 26 148 0.0 0.0 0.00 0.00 0.00 73 1024.9
20191116083939 27 148 0.0 0.0 0.00 0.00 0.00 72 1025.0
20191116083439 27 148 0.0 0.0 0.00 0.00 0.00 74 1025.1
20191116082939 27 148 0.0 0.0 0.00 0.00 0.00 72 1025.1
20191116082439 27 148 0.0 0.0 0.00 0.00 0.00 71 1025.1
20191116081940 27 148 0.0 0.0 0.00 0.00 0.00 72 1025.1
20191116081439 27 148 0.0 0.0 0.00 0.00 0.00 73 1025.3
20191116080939 26 148 0.0 0.0 0.00 0.00 0.00 72 1025.2
20191116080439 26 148 0.0 0.0 0.00 0.00 0.00 72 1025.2
20191116075939 26 148 0.0 0.0 0.00 0.00 0.00 73 1025.3
20191116075439 26 148 0.0 0.0 0.00 0.00 0.00 75 1025.3
20191116074939 26 148 0.0 0.0 0.00 0.00 0.00 74 1025.3